View from above orbital plane
|
View from above satellite
|
Ground track
|
The orbit data is extracted from the following two-line orbital elements,
1 39417U 13066B 22176.46752854 .00001598 00000-0 20029-3 0 9998
2 39417 97.6365 147.6022 0058434 19.9974 340.3511 14.82370703464317
Epoch (UTC): | 25 June 2022 11:13:14 |
Eccentricity: | 0.0058434 |
inclination: | 97.6365° |
perigee height: | 581 km |
apogee height: | 663 km |
right ascension of ascending node: | 147.6022° |
argument of perigee: | 19.9974° |
revolutions per day: | 14.82370703 |
mean anomaly at epoch: | 340.3511° |
orbit number at epoch: | 46431 |
The dashed part of the orbit path shows where the satellite is in the earth's shadow,
|
|